[[{"header":{"parameterUnit":"m.s-1","parameterCategory":1,"la1":30.2991,"la2":30.254,"lo1":-89.0895,"lo2":-89.0444,"dy":0.0017,"dx":0.0017,"nx":28,"ny":28,"refTime":"2024-02-08T03:00:00:Z","depth":0,"parameterNumber":2,"parameterNumberName":"U-component_of_WINDS"},"data":[0,0,0,0,0,0,0,0,0,0,0,0,0,0,0,0,0,0,0,0,0,0,0,0,0,0,0,0,0,0,0,0,0,0,0,0,0,0,0,0,0,0,0,0,0,0,0,0,0,0,0,0,0,0,0,0,0,0,-3.0716,-3.0716,0,-3.0774,-3.0775,-3.0776,-3.0768,-3.0767,-3.0766,-3.0765,-3.0826,-3.0828,-3.083,0,0,0,0,0,0,0,0,0,0,0,0,0,-3.0598,-3.06,-3.0716,-3.0716,-3.0717,-3.0774,-3.0775,-3.0776,-3.0768,-3.0767,-3.0766,-3.0765,-3.0825,-3.0828,-3.0831,0,0,0,0,0,0,0,0,0,0,0,0,0,-3.0652,-3.0601,-3.0716,-3.072,-3.0721,-3.0774,-3.0775,-3.0776,-3.0768,-3.0767,-3.0765,-3.0764,-3.0824,-3.0827,-3.0831,-3.0883,0,0,-3.0843,-3.0844,0,0,0,0,0,0,0,0,-3.0649,-3.0656,-3.0719,-3.072,-3.0721,-3.0762,-3.0756,-3.0812,-3.0769,-3.075,-3.0765,-3.0763,-3.0806,-3.0811,-3.0825,-3.0886,-3.0889,-3.0843,-3.0845,-3.0847,-3.0848,0,0,0,0,0,0,0,-3.0645,-3.0654,-3.0739,-3.072,-3.0721,-3.072,-3.0726,-3.0766,-3.0786,-3.0752,-3.0752,-3.0759,-3.0806,-3.0821,-3.0826,-3.089,-3.0843,-3.0846,-3.0849,-3.085,-3.0996,-3.0997,0,0,0,0,0,0,-3.064,-3.0651,-3.0737,-3.0741,-3.0681,-3.0723,-3.073,-3.0751,-3.0785,-3.0789,-3.076,-3.0758,-3.0816,-3.0822,-3.0829,-3.0891,-3.0847,-3.085,-3.0853,-3.0994,-3.0996,-3.0998,0,0,0,0,0,0,-3.0638,-3.0648,-3.0735,-3.0696,-3.0707,-3.0726,-3.075,-3.0752,-3.0768,-3.0791,-3.0794,-3.0772,-3.0815,-3.0823,-3.087,-3.0893,-3.0852,-3.0855,-3.0992,-3.0995,-3.0997,-3.1017,0,0,0,0,0,0,-3.0634,-3.0647,-3.0667,-3.0696,-3.0709,-3.0775,-3.0751,-3.0755,-3.0774,-3.0772,-3.0803,-3.0807,-3.0814,-3.0864,-3.0873,-3.0897,-3.0858,-3.099,-3.0993,-3.0996,-3.1014,-3.102,-3.1024,0,0,0,0,0,-3.063,-3.067,-3.0668,-3.0678,-3.0734,-3.0776,-3.0783,-3.0791,-3.0776,-3.0796,-3.0811,-3.0806,-3.0889,-3.0869,-3.0879,-3.0905,-3.0989,-3.0993,-3.0996,-3.1012,-3.1018,-3.1024,0,0,0,0,0,0,-3.0644,-3.0674,-3.0672,-3.0723,-3.0747,-3.0774,-3.08,-3.0798,-3.0826,-3.0824,-3.0832,-3.0839,-3.0886,-3.09,-3.0877,-3.0957,-3.0937,-3.0943,-3.0945,-3.0952,-3.0957,-3.0952,-3.0862,0,0,0,0,0,-3.0653,-3.0684,-3.0709,-3.0752,-3.0764,-3.078,-3.0799,-3.0803,-3.0828,-3.0838,-3.0856,-3.0881,-3.0913,-3.0933,-3.0964,-3.1017,-3.1023,-3.104,-3.1045,-3.1049,-3.1053,-3.1081,-3.1089,-3.101,-3.101,-3.101,0,0,-3.0671,-3.0692,-3.0711,-3.0755,-3.0774,-3.0806,-3.0788,-3.0824,-3.0848,-3.0843,-3.0888,-3.0902,-3.0931,-3.098,-3.1003,-3.0993,-3.1077,-3.1053,-3.1056,-3.1059,-3.1086,-3.1093,-3.11,-3.1012,-3.1012,-3.1012,0,0,-3.0721,-3.0741,-3.0777,-3.0797,-3.0826,-3.0836,-3.0845,-3.0874,-3.0883,-3.0928,-3.0925,-3.0954,-3.1009,-3.1029,-3.1046,-3.1104,-3.11,-3.1114,-3.114,-3.1167,-3.1174,-3.1179,-3.1199,-3.1206,-3.1119,-3.1119,-3.1119,0,-3.0741,-3.0789,-3.0797,-3.0832,-3.0851,-3.0849,-3.0886,-3.0905,-3.0943,-3.0956,-3.0945,-3.1013,-3.1033,-3.1086,-3.11,-3.1115,-3.1125,-3.111,-3.1172,-3.1178,-3.1183,-3.1202,-3.1209,-3.112,-3.112,-3.112,-3.112,0,-3.0811,-3.0845,-3.0871,-3.0907,-3.0929,-3.0965,-3.0979,-3.1001,-3.1003,-3.1015,-3.106,-3.1083,-3.1118,-3.1131,-3.1134,-3.1185,-3.1179,-3.117,-3.115,-3.1192,-3.1209,-3.1217,-3.1122,-3.1122,-3.1122,-3.1121,0,0,-3.087,-3.091,-3.0919,-3.0935,-3.0967,-3.0993,-3.103,-3.1064,-3.1082,-3.1108,-3.1138,-3.1185,-3.1177,-3.1197,-3.1202,-3.1226,-3.1269,-3.1215,-3.1215,-3.1223,-3.1326,-3.1331,-3.134,-3.1268,-3.1269,-3.127,-3.1323,0,-3.0922,-3.0985,-3.0994,-3.105,-3.1081,-3.1079,-3.1111,-3.1134,-3.1146,-3.1174,-3.1188,-3.122,-3.1208,-3.122,-3.1244,-3.1259,-3.129,-3.1256,-3.1295,-3.1296,-3.1286,-3.1349,-3.1355,-3.1404,-3.1331,-3.1332,-3.1333,0,-3.0991,-3.1019,-3.1078,-3.1105,-3.1118,-3.1146,-3.1178,-3.1205,-3.1231,-3.1238,-3.126,-3.1263,-3.13,-3.128,-3.1331,-3.1308,-3.1325,-3.1335,-3.1337,-3.1339,-3.1316,-3.1352,-3.142,-3.1426,-3.1344,-3.1343,-3.1342,0,-3.1026,-3.1079,-3.112,-3.1134,-3.1168,-3.1187,-3.1202,-3.1227,-3.1247,-3.1275,-3.1287,-3.132,-3.1337,-3.1362,-3.1373,-3.1357,-3.1423,-3.1404,-3.143,-3.1429,-3.1442,-3.1441,-3.1512,-3.1456,-3.1456,-3.1456,-3.1455,0,-3.1083,-3.1119,-3.1137,-3.1162,-3.1202,-3.1212,-3.1251,-3.1266,-3.1288,-3.1316,-3.1318,-3.1345,-3.1358,-3.1387,-3.1396,-3.1437,-3.1445,-3.1451,-3.1453,-3.145,-3.1449,-3.146,-3.1457,-3.1458,-3.1457,-3.1457,-3.1456,0,-3.1128,-3.1142,-3.1187,-3.1215,-3.1223,-3.1251,-3.1275,-3.13,-3.1312,-3.1348,-3.1357,-3.1376,-3.141,-3.1424,-3.1466,-3.1472,-3.1518,-3.1518,-3.1509,-3.1509,-3.1533,-3.153,-3.1613,-3.1623,-3.1562,-3.1562,-3.1563,0,-3.1163,-3.119,-3.1221,-3.1239,-3.1255,-3.1285,-3.1305,-3.1316,-3.1337,-3.1369,-3.139,-3.1424,-3.1451,-3.1506,-3.1523,-3.1555,-3.1555,-3.1582,-3.156,-3.1556,-3.1554,-3.1551,-3.1554,-3.1585,-3.1586,-3.1586,-3.1587,0,-3.1221,-3.1227,-3.1255,-3.1286,-3.131,-3.1335,-3.1359,-3.1375,-3.1389,-3.1413,-3.1447,-3.1468,-3.1511,-3.1544,-3.1577,-3.1593,-3.1592,-3.1594,-3.1601,-3.1598,-3.1591,-3.1594,-3.1518,-3.1592,-3.1591,-3.1591,-3.159,-3.159,-3.1261,-3.1285,-3.131,-3.1342,-3.1361,-3.1384,-3.1408,-3.1424,-3.1452,-3.1487,-3.1493,-3.1529,-3.1555,-3.1599,-3.1616,-3.1645,-3.1638,-3.1649,-3.1652,-3.1654,-3.1655,-3.1588,-3.1652,-3.1651,-3.1651,-3.1651,-3.1651,0,-3.1319,-3.1335,-3.1364,-3.1398,-3.1422,-3.142,-3.1447,-3.1468,-3.15,-3.1524,-3.1551,-3.159,-3.1623,-3.1644,-3.1676,-3.1695,-3.1696,-3.1704,-3.1701,-3.1705,-3.166,-3.1649,-3.1703,-3.1703,-3.1703,-3.1702,-3.1702,-3.1702,-3.1352,-3.1391,-3.14,-3.145,-3.1466,-3.1501,-3.1517,-3.1538,-3.1557,-3.16,-3.1627,-3.164,-3.1663,-3.1698,-3.1727,-3.1733,-3.1744,-3.1752,-3.1756,-3.1714,-3.1708,-3.1703,-3.1693,-3.1755,-3.1755,-3.1799,-3.1799,-3.1799]},{"header":{"parameterUnit":"m.s-1","parameterCategory":1,"la1":30.2991,"la2":30.254,"lo1":-89.0895,"lo2":-89.0444,"dy":0.0017,"dx":0.0017,"nx":28,"ny":28,"refTime":"2024-02-08T03:00:00:Z","depth":0,"parameterNumber":3,"parameterNumberName":"V-component_of_WINDS"},"data":[0,0,0,0,0,0,0,0,0,0,0,0,0,0,0,0,0,0,0,0,0,0,0,0,0,0,0,0,0,0,0,0,0,0,0,0,0,0,0,0,0,0,0,0,0,0,0,0,0,0,0,0,0,0,0,0,0,0,2.0435,2.0436,0,2.0534,2.0535,2.0537,2.057,2.0569,2.0569,2.0569,2.067,2.0673,2.0676,0,0,0,0,0,0,0,0,0,0,0,0,0,2.0277,2.0279,2.0435,2.0437,2.0438,2.0534,2.0535,2.0537,2.057,2.0569,2.0569,2.0568,2.0669,2.0673,2.0677,0,0,0,0,0,0,0,0,0,0,0,0,0,2.0358,2.028,2.0435,2.0466,2.047,2.0534,2.0536,2.0537,2.057,2.0569,2.0569,2.0568,2.0668,2.0673,2.0677,2.0718,0,0,2.0691,2.0693,0,0,0,0,0,0,0,0,2.0353,2.0363,2.046,2.0464,2.0468,2.0539,2.0517,2.0598,2.057,2.0532,2.0569,2.0568,2.0627,2.0635,2.0655,2.0723,2.0727,2.0692,2.0695,2.0697,2.0698,0,0,0,0,0,0,0,2.0347,2.0359,2.0475,2.0462,2.0466,2.0475,2.0486,2.0532,2.0582,2.0535,2.0538,2.0549,2.0629,2.065,2.0658,2.0729,2.0692,2.0696,2.0699,2.07,2.0838,2.0838,0,0,0,0,0,0,2.0336,2.0354,2.0471,2.0477,2.0408,2.0479,2.0491,2.0517,2.0581,2.0591,2.0549,2.055,2.0643,2.0652,2.0661,2.0716,2.0697,2.0701,2.0704,2.0837,2.0838,2.0839,0,0,0,0,0,0,2.0333,2.0346,2.0467,2.0417,2.0433,2.0482,2.0511,2.0519,2.0541,2.0592,2.0601,2.0562,2.0643,2.0655,2.0704,2.0719,2.0703,2.0707,2.0836,2.0837,2.0838,2.0823,0,0,0,0,0,0,2.0328,2.0345,2.0361,2.0417,2.0435,2.0508,2.0512,2.0522,2.0548,2.055,2.0606,2.0615,2.0643,2.0697,2.0709,2.0726,2.0711,2.0835,2.0836,2.0838,2.0822,2.0823,2.0824,0,0,0,0,0,2.0322,2.0352,2.0361,2.0375,2.0456,2.0509,2.052,2.0551,2.0549,2.0566,2.06,2.0613,2.0715,2.0702,2.0715,2.0734,2.0834,2.0836,2.0838,2.0822,2.0823,2.0824,0,0,0,0,0,0,2.0296,2.036,2.0371,2.0419,2.0458,2.0514,2.0536,2.0551,2.0592,2.0592,2.063,2.0642,2.0689,2.0716,2.07,2.0778,2.0775,2.078,2.0759,2.076,2.0761,2.0755,2.0715,0,0,0,0,0,2.0296,2.0333,2.0387,2.0425,2.0444,2.0486,2.0511,2.0532,2.0574,2.0591,2.0628,2.0668,2.071,2.0736,2.0777,2.0826,2.0839,2.0845,2.0846,2.0847,2.0851,2.0881,2.0884,2.0845,2.0845,2.0845,0,0,2.0296,2.0335,2.0356,2.042,2.0453,2.0492,2.05,2.054,2.057,2.0597,2.0646,2.0675,2.0723,2.0772,2.0796,2.0796,2.0865,2.0849,2.0849,2.0853,2.0883,2.0887,2.089,2.0846,2.0846,2.0846,0,0,2.0316,2.0349,2.0385,2.0418,2.0468,2.0496,2.0505,2.0559,2.0579,2.0629,2.0651,2.0686,2.0756,2.079,2.0817,2.0851,2.0866,2.0863,2.087,2.0898,2.0902,2.0904,2.0919,2.0923,2.0867,2.0867,2.0867,0,2.031,2.0369,2.0401,2.0441,2.0469,2.0496,2.0533,2.0564,2.0624,2.0643,2.0643,2.0733,2.0766,2.0826,2.0834,2.0854,2.0866,2.0858,2.0898,2.0902,2.0905,2.0919,2.0924,2.0866,2.0867,2.0867,2.0867,0,2.036,2.04,2.0424,2.0482,2.0513,2.0551,2.059,2.0617,2.0636,2.0665,2.0716,2.0758,2.0809,2.0824,2.0842,2.0886,2.0885,2.0891,2.089,2.0908,2.0922,2.0927,2.0866,2.0866,2.0866,2.0866,0,0,2.0366,2.0443,2.0451,2.0479,2.0536,2.0569,2.0609,2.0659,2.0682,2.0723,2.0759,2.0818,2.0824,2.0854,2.0876,2.0901,2.0928,2.0904,2.0906,2.0909,2.0982,2.0979,2.0984,2.0938,2.0939,2.094,2.0979,0,2.0396,2.0468,2.0499,2.0558,2.0597,2.0623,2.0659,2.0698,2.0726,2.0764,2.0795,2.0837,2.0841,2.086,2.0885,2.0919,2.0944,2.0917,2.0973,2.0975,2.0962,2.0991,2.0988,2.1022,2.0984,2.0985,2.0986,0,2.0439,2.0481,2.0544,2.0598,2.0616,2.0647,2.0696,2.0731,2.0777,2.0796,2.083,2.0851,2.0896,2.089,2.0953,2.0934,2.0959,2.0979,2.0981,2.0989,2.0982,2.1002,2.1034,2.104,2.0994,2.0994,2.0993,0,2.044,2.0512,2.056,2.0582,2.0646,2.0668,2.0696,2.0741,2.0769,2.0812,2.0832,2.0879,2.0905,2.0942,2.0976,2.0969,2.1036,2.1033,2.1054,2.1053,2.1068,2.1067,2.1107,2.1081,2.1081,2.1081,2.1081,0,2.047,2.0508,2.0561,2.0591,2.0634,2.067,2.0713,2.0742,2.0782,2.0819,2.0844,2.0877,2.0919,2.0959,2.0986,2.1035,2.1046,2.1063,2.107,2.1062,2.106,2.108,2.1079,2.1082,2.1082,2.1082,2.1081,0,2.0479,2.0516,2.057,2.0626,2.0642,2.0672,2.0721,2.0751,2.078,2.0826,2.0839,2.0885,2.0933,2.0971,2.1032,2.1051,2.1103,2.1109,2.1088,2.1092,2.1112,2.111,2.1167,2.1177,2.1142,2.1143,2.1143,0,2.0497,2.0527,2.0587,2.0613,2.0641,2.0683,2.0712,2.0749,2.0779,2.0834,2.0858,2.0908,2.095,2.1025,2.1065,2.1113,2.1122,2.1139,2.1129,2.1121,2.1125,2.1124,2.1128,2.114,2.114,2.114,2.1141,0,2.0525,2.0542,2.0584,2.0632,2.0667,2.0707,2.0748,2.0768,2.0812,2.0845,2.0894,2.0927,2.0991,2.104,2.1093,2.1122,2.114,2.1143,2.1151,2.1144,2.1131,2.1141,2.1093,2.1142,2.1142,2.1142,2.1142,2.1142,2.054,2.0569,2.0616,2.0663,2.0697,2.0735,2.0767,2.08,2.0842,2.0898,2.0916,2.0968,2.1015,2.1087,2.1117,2.1159,2.116,2.117,2.1173,2.1176,2.1176,2.1123,2.1168,2.1168,2.1168,2.1168,2.1168,0,2.0571,2.0603,2.0646,2.0702,2.0739,2.0751,2.0798,2.0828,2.0873,2.0915,2.0956,2.1014,2.1062,2.1106,2.1157,2.1182,2.1192,2.1195,2.1194,2.1201,2.1171,2.1161,2.1186,2.1186,2.1186,2.1186,2.1186,2.1186,2.0592,2.0642,2.0665,2.0733,2.0765,2.0816,2.0841,2.0877,2.0911,2.0975,2.1015,2.1044,2.1087,2.1142,2.1188,2.1199,2.1218,2.1219,2.1233,2.1205,2.1203,2.1201,2.1191,2.1223,2.1223,2.126,2.126,2.1261]}]]